Погода в Йопале

Колумбия     5°20′47″N   72°24′09″W
темп.,
°C
ветер,
м/с
пор.,
м/с
влажн.,
%
обл.,
%
осадки,
мм/ч
давл.,
гПа
погр.,
м
16 мая, вс
вс1601:00+22сз1191100 1.8 101215
04:00+21сз119364 0.0 101213
07:00+22ссв0088100 0.1 101492
10:00+25ююв228697 2.1 1015430
13:00+26юв118436 7.9 1012609
16:00+25ююв118899 4.4 1010416
19:00+22юз009698 9.2 101312
22:00+22с0195100 1.9 101412
17 мая, пн
пн1701:00+22зсз1196100 6.4 101320
04:00+21зюз1196100 1.4 101228
07:00+22ююв019696 2.9 101439
10:00+21вюв0199100 4.1 1016107
13:00+21св1199100 17.1 1014114
16:00+21юз1196100 5.7 101343
19:00+20юз119898 6.9 101645
22:00+20зюз229891 0.2 101785
18 мая, вт
вт1801:00+20ююв0196100 0.2 101428
04:00+20сз1193100 0.0 101412
07:00+21ссз009296 0.0 101625
10:00+23ююв1184100 0.0 1016323
13:00+25ююз227899 0.2 1014569
16:00+23ю119140 0.1 1011182
19:00+21зсз119620 0.1 101313
22:00+20сз11959 0.0 101512
19 мая, ср
ср1901:00+20сз2193100 0.4 101417
04:00+20сз2187100 0.0 101317
07:00+22с118056 0.0 101471
10:00+24юв117886 0.0 1016376
13:00+29юв11617 0.1 10121091
16:00+26всв127821 1.6 1010627
19:00+21ссз119218 4.4 101317
22:00+20ссз119429 2.4 101419
20 мая, чт
чт2001:00+20ссз119365 7.1 101314
04:00+20сз119185 1.3 101215
07:00+22с128978 0.3 1014114
10:00+25в228438 1.8 1015664
13:00+25в238783 7.4 1013678
16:00+25в128627 3.3 1010562
19:00+22св119581 3.4 101126
22:00+21ссз1197100 1.3 101418